Wilmington, DE

12:18 PM EST on December 05, 2019 (GMT -0500)
New Castle County

Weather History for KILG - November, 2019

Change the Weather History Date:

Tuesday, November 12, 2019

  Actual Average Record
Temperature  
Mean Temperature 42 °F 48 °F  
Max Temperature 58 °F 57 °F 74 °F (1912)
Min Temperature 26 °F 38 °F 23 °F (1957)
Degree Days  
Heating Degree Days 23 17  
Month to date heating degree days 243 187  
Since 1 July heating degree days 413 531  
Cooling Degree Days 0 0  
Month to date cooling degree days 0 0  
Year to date cooling degree days 1508 1145  
Moisture  
Dew Point 27 °F    
Average Humidity 62    
Maximum Humidity 89    
Minimum Humidity 34    
Precipitation  
Precipitation 0.09 in 0.09 in 1.30 in (2004)
Month to date precipitation 0.21 1.18  
Year to date precipitation 42.30 37.68  
Snow  
Snow T in 0.00 in T in (2013)
Month to date snowfall T 0.0  
Since 1 July snowfall T 0.0  
Since 1 September snowfall T 0.0  
Snow Depth 0.00 in    
Sea Level Pressure  
Sea Level Pressure 29.98 in    
Wind  
Wind Speed 14 mph (NW)    
Max Wind Speed 28 mph    
Max Gust Speed 34 mph    
Visibility 9 miles    
Events Rain , Snow    
T = Trace of Precipitation, MM = Missing Value Source: NWS Daily Summary

Daily Weather History Graph

Daily Weather History Graph

Search for Another Location

Airport or City:

Astronomy

Nov. 12, 2019 Rise Set
Actual Time 6:43 AM EST 4:49 PM EST
Civil Twilight 6:14 AM EST 5:18 PM EST
Nautical Twilight 5:42 AM EST 5:50 PM EST
Astronomical Twilight 5:10 AM EST 6:22 PM EST
Moon 5:15 PM EST (11/12) 6:32 AM EST (11/12)
Length of Visible Light 11h 03m
Length of Day
10h 06m
Full, 100% of the Moon is Illuminated
Nov 12
Full
Nov 19
Last Quarter
Nov 26
New
Dec 4
First Quarter
Dec 12
Full

Hourly Weather History & Observations

Time (EST) Temp. Windchill Dew Point Humidity Pressure Visibility Wind Dir Wind Speed Gust Speed Precip Events Conditions
12:51 AM 57.9 °F - 42.1 °F 56% 29.77 in 10.0 mi SSW 9.2 mph - N/A   Clear
1:51 AM 57.0 °F - 41.0 °F 55% 29.75 in 10.0 mi SSW 9.2 mph - N/A   Clear
2:51 AM 57.9 °F - 41.0 °F 53% 29.75 in 10.0 mi SSW 12.7 mph 23.0 mph N/A   Partly Cloudy
3:51 AM 57.0 °F - 41.0 °F 55% 29.73 in 10.0 mi SW 6.9 mph - N/A   Clear
4:51 AM 57.0 °F - 42.1 °F 57% 29.74 in 10.0 mi SW 8.1 mph - N/A   Mostly Cloudy
5:51 AM 53.1 °F - 46.0 °F 77% 29.77 in 9.0 mi WSW 10.4 mph - 0.01 in Rain Light Rain
6:51 AM 52.0 °F - 48.0 °F 86% 29.78 in 6.0 mi West 8.1 mph - 0.04 in Rain Rain
8:51 AM 44.1 °F 36.2 °F 37.9 °F 79% 29.88 in 10.0 mi NNW 18.4 mph 27.6 mph 0.00 in   Overcast
9:51 AM 39.9 °F 30.2 °F 32.0 °F 73% 29.93 in 10.0 mi NW 20.7 mph 28.8 mph 0.00 in   Overcast
11:33 AM 36.0 °F 25.6 °F 28.0 °F 73% 29.99 in 1.8 mi NNW 18.4 mph 25.3 mph 0.00 in Snow Light Snow
11:47 AM 35.6 °F 27.1 °F 28.4 °F 75% 29.99 in 3.0 mi NW 12.7 mph - 0.00 in Snow Light Snow
11:51 AM 36.0 °F 27.1 °F 28.9 °F 76% 29.99 in 6.0 mi NW 13.8 mph - 0.00 in Snow Light Snow
12:02 PM 37.0 °F 27.0 °F 27.0 °F 67% 29.98 in 9.0 mi NNW 18.4 mph 24.2 mph 0.00 in   Overcast
12:51 PM 37.0 °F 27.0 °F 26.1 °F 65% 29.98 in 10.0 mi NW 18.4 mph 28.8 mph 0.00 in   Overcast
1:51 PM 36.0 °F 25.3 °F 24.1 °F 62% 29.99 in 10.0 mi NNW 19.6 mph 27.6 mph N/A   Overcast
2:51 PM 36.0 °F 24.7 °F 21.9 °F 57% 30.00 in 10.0 mi NNW 21.9 mph 26.5 mph N/A   Scattered Clouds
3:51 PM 37.0 °F 28.1 °F 21.0 °F 52% 30.03 in 10.0 mi North 15.0 mph 25.3 mph N/A   Clear
4:51 PM 35.1 °F 25.5 °F 19.0 °F 52% 30.06 in 10.0 mi NNW 15.0 mph 21.9 mph N/A   Partly Cloudy
5:51 PM 33.1 °F 24.4 °F 17.1 °F 52% 30.09 in 10.0 mi NNW 11.5 mph - N/A   Clear
6:51 PM 33.1 °F 23.4 °F 17.1 °F 52% 30.12 in 10.0 mi NNW 13.8 mph - N/A   Clear
7:51 PM 32.0 °F 24.2 °F 17.1 °F 54% 30.15 in 10.0 mi NNW 9.2 mph - N/A   Clear
8:51 PM 30.9 °F 21.2 °F 15.1 °F 52% 30.19 in 10.0 mi NNW 12.7 mph - N/A   Clear
9:51 PM 28.9 °F 19.8 °F 12.9 °F 51% 30.22 in 10.0 mi North 10.4 mph - N/A   Clear
10:51 PM 28.9 °F 17.7 °F 3.9 °F 35% 30.24 in 10.0 mi North 15.0 mph - N/A   Clear
11:51 PM 26.1 °F 15.6 °F 5.0 °F 41% 30.26 in 10.0 mi NNW 11.5 mph - N/A   Clear